Weather Roundup
Issued by NWS

Home | Current Version | Previous Version | Text Only | Print | Product List | Glossary On
Versions: 1 2 3 4 5 6 7 8 9 10 11 12 13 14 15 16 17 18 19 20 21 22 23 24 25 26 27 28 29 30 31 32 33 34 35 36 37 38 39 40 41 42 43 44 45 46 47 48 49 50
382
NZUS93 KARX 012010
HRRWXR

CURRENT HOURLY OBSERVATIONS ACROSS
MUCH OF THE UPPER MISSISSIPPI VALLEY
NATIONAL WEATHER SERVICE LA CROSSE WI
300 PM CDT SAT OCT 01 2016


...SOUTHEAST MINNESOTA...


CITY           SKY/WX    TMP DP  RH WIND       PRES   REMARKS
ROCHESTER      MOSUNNY   70  55  59 NE13      30.07F
ROCHESTER/MAYO   N/A     69  52  54 NE8       30.07
WINONA         MOSUNNY   73  54  49 E3        30.06S
AUSTIN         PTSUNNY   70  55  60 E8        30.06F
ALBERT LEA     MOSUNNY   72  54  53 NE9       30.06F
DODGE CENTER   SUNNY     73  50  43 E8G16     30.07F
PRESTON        PTSUNNY   64  54  69 E5        30.08F
OWATONNA       SUNNY     73  48  40 NE13      30.07F
FARIBAULT      SUNNY     73  54  49 NE9       30.08F
$$

...ELSEWHERE IN MINNESOTA...


CITY           SKY/WX    TMP DP  RH WIND       PRES   REMARKS
MINNEAPOLIS    SUNNY     71  55  56 E7        30.09F
INTNL FALLS    CLOUDY    67  49  52 NE5       30.15F
DULUTH         MOSUNNY   66  51  58 E10       30.15F
RED WING       SUNNY     72  45  37 NE5       30.06F
REDWOOD FALLS  SUNNY     74  51  44 VRB5      30.07F
MANKATO        MOSUNNY   71  54  54 NE13      30.07F
WORTHINGTON    PTSUNNY   70  54  56 VRB7      30.09F
FAIRMONT       CLOUDY    71  55  56 NE8       30.07F
$$

...SOUTHWEST WISCONSIN...


CITY           SKY/WX    TMP DP  RH WIND       PRES   REMARKS
LA CROSSE      PTSUNNY   70  55  59 E9        30.06F
PRAIRIE DU CHI CLOUDY    62  56  81 NE7       30.06S
BOSCOBEL       CLOUDY    63  57  81 CALM      30.06S
LONE ROCK      CLOUDY    63  56  78 NE8       30.05F
PLATTEVILLE    CLOUDY    63  60  89 N7        30.04S
FORT MC COY    CLOUDY    67  55  65 NE9       30.07F
CAMP DOUGLAS   PTSUNNY   64  55  72 NE10      30.06F
MAUSTON-NEW LI CLOUDY    66  55  67 NE6       30.05
VIROQUA        CLOUDY    60  56  85 NE6G16    30.07S
WIS DELLS      CLOUDY    60  56  84 NE3       30.05S
$$

...ELSEWHERE IN WISCONSIN...


CITY           SKY/WX    TMP DP  RH WIND       PRES   REMARKS
MILWAUKEE      LGT RAIN  61  58  90 N8        30.00F VSB 1
MADISON        CLOUDY    60  57  89 N14       30.03S
GREEN BAY      CLOUDY    61  60  97 NE15      30.06F
EAU CLAIRE     PTSUNNY   71  50  47 NE5       30.08F
BLACK RVR FLS  CLOUDY    68  51  54 N6        30.06F
MEDFORD        MOSUNNY   67  47  48 NE7       30.10S
WAUSAU         PTSUNNY   64  49  57 E10       30.08F
WIS RAPIDS     PTSUNNY   67  51  56 E10G17    30.08F
MARSHFIELD     CLOUDY    69  49  48 NE10G16   30.08F
RICE LAKE      MOSUNNY   70  51  51 N5        30.12F
$$

...NORTHEAST IOWA...


CITY           SKY/WX    TMP DP  RH WIND       PRES   REMARKS
WATERLOO       CLOUDY    66  57  72 NE10      30.04F
DUBUQUE        CLOUDY    63  58  83 N8        30.04S
DECORAH        CLOUDY    63  57  82 NE8       30.06S
MASON CITY     CLOUDY    68  54  60 NE7       30.08F
CHARLES CITY   CLOUDY    64  57  77 NE8       30.07S
OELWEIN        CLOUDY    64  57  77 NE7       30.06S
$$

...ELSEWHERE IN IOWA...


CITY           SKY/WX    TMP DP  RH WIND       PRES   REMARKS
DES MOINES     CLOUDY    66  57  72 W3        30.05F
IOWA CITY      CLOUDY    63  60  90 NW6       30.05S
FORT DODGE     CLOUDY    66  55  68 NE7       30.07F
MARSHALLTOWN   CLOUDY    65  58  78 N8        30.05F
CEDAR RAPIDS   LGT RAIN  61  61 100 N7        30.04S FOG
$$

...NORTHERN ILLINOIS...


CITY           SKY/WX    TMP DP  RH WIND       PRES   REMARKS
CHICAGO-OHARE  RAIN      61  59  93 N8        29.97F FOG
CHICAGO-MIDWAY LGT RAIN  63  58  83 W7        29.96F
MOLINE         CLOUDY    68  60  75 W5        30.00F
ROCKFORD       CLOUDY    64  58  80 N10       30.02S
PEORIA         MOSUNNY   70  58  65 VRB6      29.98F
$$

NOTE: "FAIR" INDICATES FEW OR NO CLOUDS BELOW 12,000 FEET WITH NO
SIGNIFICANT WEATHER AND/OR OBSTRUCTIONS TO VISIBILITY. WIND
SPEEDS ARE IN MILES-PER-HOUR.




USA.gov is the U.S. government's official web portal to all federal, state and local government web resources and services.